When you browse on this site, cookies collect data to enhance your experience and personalize the content and advertising you see.
Visit our Privacy Policy to learn more. By continuing to use the site, you agree to this use of cookies and data.
  • In Lithuania
  • List of Countries
  • For 7 days
  • Water Temperature
  • Satellite Maps
  • Weather Map
  • Weather Widgets
  • user-avatar
    Login

    Hourly Weather Sorka

    Today, 23 July, Tuesday

    Time Temperature Precipitation Wind Pressure Humidity
    00:00 +13°C° 0 mm 1 mps 746 mmHg 76%
    01:00 +12°C° 0 mm 1 mps 746 mmHg 78%
    02:00 +12°C° 0 mm 1 mps 745 mmHg 83%
    03:00 +12°C° 0 mm 1 mps 745 mmHg 80%
    04:00 +13°C° 0 mm 1 mps 745 mmHg 78%
    05:00 +14°C° 0 mm 1 mps 745 mmHg 76%
    06:00 +16°C° 0 mm 1 mps 745 mmHg 67%
    07:00 +19°C° 0 mm 1 mps 745 mmHg 59%
    08:00 +21°C° 0 mm 1 mps 745 mmHg 50%
    09:00 +23°C° 0 mm 1 mps 745 mmHg 45%
    10:00 +24°C° 0 mm 1 mps 745 mmHg 40%
    11:00 +26°C° 0 mm 1 mps 745 mmHg 35%
    12:00 +26°C° 0 mm 1 mps 745 mmHg 34%
    13:00 +26°C° 0 mm 1 mps 745 mmHg 33%
    14:00 +27°C° 0 mm 1 mps 744 mmHg 32%
    15:00 +25°C° 0 mm 1 mps 745 mmHg 38%
    16:00 +24°C° 0 mm 2 mps 745 mmHg 45%
    17:00 +23°C° 0 mm 2 mps 745 mmHg 51%
    18:00 +20°C° 0 mm 2 mps 745 mmHg 60%
    19:00 +18°C° 0 mm 3 mps 745 mmHg 69%
    20:00 +16°C° 0 mm 3 mps 745 mmHg 79%
    21:00 +14°C° 0 mm 3 mps 745 mmHg 80%
    22:00 +13°C° 0 mm 3 mps 745 mmHg 81%
    23:00 +13°C° 0 mm 2 mps 745 mmHg 82%

    Tomorrow, 24 July, Wednesday

    Time Temperature Precipitation Wind Pressure Humidity
    00:00 +12°C° 0 mm 2 mps 745 mmHg 81%
    01:00 +12°C° 0 mm 2 mps 746 mmHg 81%
    02:00 +12°C° 0 mm 2 mps 746 mmHg 81%
    03:00 +12°C° 0 mm 2 mps 746 mmHg 79%
    04:00 +12°C° 0 mm 2 mps 746 mmHg 77%
    05:00 +13°C° 0 mm 2 mps 746 mmHg 75%
    06:00 +13°C° 0 mm 3 mps 746 mmHg 70%
    07:00 +16°C° 0 mm 3 mps 746 mmHg 66%
    08:00 +17°C° 0 mm 3 mps 746 mmHg 62%
    09:00 +18°C° 0 mm 3 mps 746 mmHg 60%
    10:00 +19°C° 0 mm 3 mps 746 mmHg 58%
    11:00 +20°C° 0 mm 3 mps 746 mmHg 57%
    12:00 +20°C° 0.1 mm 3 mps 746 mmHg 58%
    13:00 +21°C° 0.1 mm 3 mps 746 mmHg 59%
    14:00 +21°C° 0.1 mm 2 mps 746 mmHg 60%
    15:00 +21°C° 0.3 mm 2 mps 746 mmHg 65%
    16:00 +20°C° 0.3 mm 2 mps 746 mmHg 70%
    17:00 +19°C° 0.3 mm 2 mps 746 mmHg 75%
    18:00 +18°C° 0 mm 2 mps 746 mmHg 81%
    19:00 +17°C° 0 mm 2 mps 746 mmHg 87%
    20:00 +15°C° 0 mm 2 mps 746 mmHg 93%
    21:00 +15°C° 0 mm 2 mps 746 mmHg 95%
    22:00 +14°C° 0 mm 2 mps 746 mmHg 97%
    23:00 +14°C° 0 mm 2 mps 746 mmHg 98%

    Day after tomorrow, 25 July, Thursday

    Time Temperature Precipitation Wind Pressure Humidity
    00:00 +15°C° 0 mm 2 mps 746 mmHg 98%
    01:00 +15°C° 0 mm 2 mps 746 mmHg 98%
    02:00 +16°C° 0 mm 2 mps 746 mmHg 98%
    03:00 +16°C° 0.2 mm 2 mps 746 mmHg 98%
    04:00 +16°C° 0.2 mm 2 mps 746 mmHg 98%
    05:00 +16°C° 0.2 mm 2 mps 746 mmHg 98%
    06:00 +16°C° 0.3 mm 2 mps 746 mmHg 98%
    07:00 +17°C° 0.3 mm 3 mps 747 mmHg 97%
    08:00 +17°C° 0.3 mm 3 mps 747 mmHg 97%
    09:00 +18°C° 0.1 mm 3 mps 747 mmHg 94%
    10:00 +19°C° 0.1 mm 3 mps 747 mmHg 91%
    11:00 +20°C° 0.1 mm 4 mps 748 mmHg 87%
    12:00 +21°C° 0.2 mm 4 mps 748 mmHg 82%
    13:00 +22°C° 0.2 mm 4 mps 748 mmHg 77%
    14:00 +23°C° 0.2 mm 4 mps 748 mmHg 72%
    15:00 +23°C° 0.3 mm 4 mps 748 mmHg 74%
    16:00 +24°C° 0.3 mm 3 mps 748 mmHg 76%
    17:00 +24°C° 0.3 mm 3 mps 749 mmHg 78%
    18:00 +23°C° 0.2 mm 2 mps 749 mmHg 84%
    19:00 +20°C° 0.2 mm 2 mps 749 mmHg 89%
    20:00 +20°C° 0.2 mm 1 mps 749 mmHg 94%
    21:00 +19°C° 0 mm 1 mps 750 mmHg 95%
    22:00 +19°C° 0 mm 1 mps 750 mmHg 95%
    23:00 +18°C° 0 mm 1 mps 750 mmHg 96%

    26 July, Friday

    Time Temperature Precipitation Wind Pressure Humidity
    00:00 +18°C° 0 mm 1 mps 750 mmHg 96%
    01:00 +18°C° 0 mm 1 mps 751 mmHg 96%
    02:00 +16°C° 0 mm 1 mps 751 mmHg 96%
    03:00 +18°C° 0 mm 1 mps 751 mmHg 96%
    04:00 +18°C° 0 mm 1 mps 751 mmHg 96%
    05:00 +17°C° 0 mm 2 mps 752 mmHg 96%
    06:00 +19°C° 0 mm 2 mps 752 mmHg 90%
    07:00 +21°C° 0 mm 2 mps 752 mmHg 85%
    08:00 +23°C° 0 mm 2 mps 752 mmHg 79%
    09:00 +25°C° 0 mm 2 mps 752 mmHg 70%
    10:00 +27°C° 0 mm 3 mps 752 mmHg 61%
    11:00 +28°C° 0 mm 3 mps 752 mmHg 51%
    12:00 +29°C° 0 mm 3 mps 751 mmHg 50%
    13:00 +29°C° 0 mm 3 mps 751 mmHg 48%
    14:00 +30°C° 0 mm 3 mps 751 mmHg 46%
    15:00 +29°C° 0 mm 3 mps 751 mmHg 49%
    16:00 +29°C° 0 mm 2 mps 750 mmHg 51%
    17:00 +28°C° 0 mm 2 mps 750 mmHg 54%
    18:00 +26°C° 0 mm 2 mps 750 mmHg 62%
    19:00 +24°C° 0 mm 1 mps 750 mmHg 69%
    20:00 +22°C° 0 mm 1 mps 750 mmHg 76%
    21:00 +22°C° 0 mm 1 mps 750 mmHg 78%
    22:00 +21°C° 0 mm 1 mps 750 mmHg 81%
    23:00 +20°C° 0 mm 1 mps 750 mmHg 83%

    27 July, Saturday

    Time Temperature Precipitation Wind Pressure Humidity
    00:00 +20°C° 0 mm 1 mps 750 mmHg 85%
    01:00 +20°C° 0 mm 1 mps 750 mmHg 86%
    02:00 +18°C° 0 mm 2 mps 750 mmHg 88%
    03:00 +19°C° 0 mm 2 mps 749 mmHg 86%
    04:00 +19°C° 0 mm 2 mps 749 mmHg 84%
    05:00 +20°C° 0 mm 1 mps 749 mmHg 82%
    06:00 +21°C° 0 mm 2 mps 749 mmHg 76%
    07:00 +23°C° 0 mm 2 mps 749 mmHg 69%
    08:00 +25°C° 0 mm 2 mps 748 mmHg 63%
    09:00 +27°C° 0 mm 2 mps 748 mmHg 57%
    10:00 +28°C° 0 mm 3 mps 748 mmHg 51%
    11:00 +29°C° 0 mm 3 mps 747 mmHg 45%
    12:00 +30°C° 0 mm 3 mps 747 mmHg 45%
    13:00 +30°C° 0 mm 4 mps 747 mmHg 44%
    14:00 +30°C° 0 mm 4 mps 746 mmHg 44%
    15:00 +28°C° 0.1 mm 4 mps 746 mmHg 50%
    16:00 +27°C° 0.1 mm 5 mps 746 mmHg 56%
    17:00 +26°C° 0.1 mm 5 mps 745 mmHg 62%
    18:00 +23°C° 0 mm 5 mps 746 mmHg 64%
    19:00 +21°C° 0 mm 5 mps 746 mmHg 67%
    20:00 +19°C° 0 mm 4 mps 746 mmHg 69%
    21:00 +17°C° 0 mm 4 mps 746 mmHg 69%
    22:00 +15°C° 0 mm 4 mps 746 mmHg 69%
    23:00 +14°C° 0 mm 4 mps 747 mmHg 69%

    28 July, Sunday

    Time Temperature Precipitation Wind Pressure Humidity
    00:00 +12°C° 0 mm 4 mps 747 mmHg 70%
    01:00 +11°C° 0 mm 4 mps 747 mmHg 72%
    02:00 +8°C° 0 mm 4 mps 747 mmHg 73%
    03:00 +8°C° 0 mm 4 mps 748 mmHg 72%
    04:00 +7°C° 0 mm 4 mps 748 mmHg 70%
    05:00 +7°C° 0 mm 4 mps 748 mmHg 69%
    06:00 +8°C° 0 mm 4 mps 748 mmHg 64%
    07:00 +10°C° 0 mm 4 mps 748 mmHg 60%
    08:00 +11°C° 0 mm 4 mps 748 mmHg 55%
    09:00 +11°C° 0 mm 4 mps 748 mmHg 54%
    10:00 +12°C° 0 mm 4 mps 748 mmHg 53%
    11:00 +13°C° 0 mm 4 mps 748 mmHg 52%
    12:00 +12°C° 0 mm 4 mps 748 mmHg 53%
    13:00 +12°C° 0 mm 4 mps 748 mmHg 54%
    14:00 +11°C° 0 mm 4 mps 747 mmHg 54%
    15:00 +11°C° 0 mm 4 mps 747 mmHg 55%
    16:00 +11°C° 0 mm 4 mps 747 mmHg 56%
    17:00 +11°C° 0 mm 4 mps 747 mmHg 57%
    18:00 +10°C° 0 mm 4 mps 747 mmHg 60%
    19:00 +10°C° 0 mm 3 mps 747 mmHg 62%
    20:00 +9°C° 0 mm 3 mps 747 mmHg 65%
    21:00 +9°C° 0 mm 3 mps 747 mmHg 66%
    22:00 +8°C° 0 mm 3 mps 747 mmHg 67%
    23:00 +8°C° 0 mm 3 mps 747 mmHg 68%
    Show more